Location: Cran-Gévrier
(45.9039°N, 6.1012°E)
Time: 09:56:04
(UTC+00:00)

Cosmos 1400 Rocket - Pass Details

Date: 09 February 2023
Orbit: 515 x 557 km, 81.2° (Epoch: 31 March)

Event Time Altitude Azimuth Distance (km) Brightness Sun altitude
Rises 18:26:20 0° 169° (S) 2,653 6.2 -16.7°
Reaches altitude 10° 18:28:34 10° 161° (SSE) 1,776 5.2 -17.1°
Enters shadow 18:30:56 29° 132° (SE) 1,010 3.8 -17.5°
